Weather History for KGBD - June, 2013

Change the Weather History Date:

Sunday, June 16, 2013

  Actual Average (KRSL) Record (KRSL)
Temperature  
Mean Temperature 76 °F -  
Max Temperature 89 °F 86 °F - (-1)
Min Temperature 64 °F 61 °F - (-1)
Cooling Degree Days 12    
Growing Degree Days 26 (Base 50)    
Moisture  
Dew Point 59 °F    
Average Humidity 56    
Maximum Humidity 88    
Minimum Humidity 33    
Precipitation  
Precipitation 0.41 in - - ()
Sea Level Pressure  
Sea Level Pressure 29.97 in    
Wind  
Wind Speed 12 mph (ESE)    
Max Wind Speed 38 mph    
Max Gust Speed 48 mph    
Visibility 10 miles    
Events Thunderstorm    
Averages and records for this station are not official NWS values.
T = Trace of Precipitation, MM = Missing Value Source: NWS Daily Summary

Daily Weather History Graph

Daily Weather History Graph

Search for Another Location

Airport or City:

Trip Planner

Search our weather history database for the weather conditions in past years. The results will help you decide how hot, cold, wet, or windy it might be!

Date:

Astronomy

Jun. 16, 2013 Rise Set
Actual Time 6:11 AM CDT 9:01 PM CDT
Civil Twilight 5:39 AM CDT 9:32 PM CDT
Nautical Twilight 4:59 AM CDT 10:12 PM CDT
Astronomical Twilight 4:14 AM CDT 10:58 PM CDT
Moon 1:43 PM CDT (6/16) 1:12 AM CDT (6/16)
Length of Visible Light 15h 53m
Length of Day
14h 49m
Waxing Crescent, 50% of the Moon is Illuminated
Jun 16
Waxing Crescent
Jun 16
First Quarter
Jun 23
Full
Jun 29
Last Quarter
Jul 8
New

Hourly Weather History & Observations

Time (CDT) Temp. Heat Index Dew Point Humidity Pressure Visibility Wind Dir Wind Speed Gust Speed Precip Events Conditions
12:15 AM 73.4 °F - 60.8 °F 65% 29.92 in 10.0 mi SSW 13.8 mph - N/A   Partly Cloudy
12:35 AM 71.6 °F - 60.8 °F 69% 29.94 in 10.0 mi SW 16.1 mph - N/A   Partly Cloudy
12:55 AM 71.6 °F - 62.6 °F 73% 29.94 in 10.0 mi SW 8.1 mph - N/A   Partly Cloudy
1:15 AM 73.4 °F - 60.8 °F 65% 29.94 in 10.0 mi SW 16.1 mph 21.9 mph N/A   Clear
1:35 AM 75.2 °F - 59.0 °F 57% 30.01 in 10.0 mi West 18.4 mph 31.1 mph N/A Thunderstorm Scattered Clouds
1:55 AM 69.8 °F - 60.8 °F 73% 30.06 in 10.0 mi SW 17.3 mph - N/A   Partly Cloudy
2:15 AM 68.0 °F - 60.8 °F 78% 30.04 in 10.0 mi West 19.6 mph 32.2 mph N/A Thunderstorm Mostly Cloudy
2:35 AM 66.2 °F - 60.8 °F 83% 30.04 in 10.0 mi West 31.1 mph 39.1 mph N/A   Overcast
2:55 AM 64.4 °F - 60.8 °F 88% 30.06 in 9.0 mi WNW 29.9 mph 48.3 mph 0.01 in   Overcast
3:15 AM 64.4 °F - 60.8 °F 88% 30.08 in 10.0 mi WNW 25.3 mph 36.8 mph 0.03 in   Overcast
3:35 AM 64.4 °F - 60.8 °F 88% 30.09 in 10.0 mi West 15.0 mph 27.6 mph 0.08 in   Overcast
3:55 AM 64.4 °F - 59.0 °F 83% 30.04 in 10.0 mi North 12.7 mph - 0.12 in   Overcast
4:15 AM 64.4 °F - 59.0 °F 83% 30.05 in 10.0 mi NW 8.1 mph - N/A   Overcast
4:35 AM 64.4 °F - 59.0 °F 83% 30.06 in 10.0 mi NW 11.5 mph - 0.01 in   Overcast
4:55 AM 66.2 °F - 57.2 °F 73% 29.98 in 10.0 mi SE 16.1 mph - 0.02 in   Mostly Cloudy
5:15 AM 69.8 °F - 55.4 °F 60% 29.85 in 10.0 mi SE 28.8 mph 36.8 mph N/A   Partly Cloudy
5:35 AM 68.0 °F - 55.4 °F 64% 29.90 in 10.0 mi South 18.4 mph 23.0 mph N/A   Clear
5:55 AM 66.2 °F - 57.2 °F 73% 29.92 in 10.0 mi South 12.7 mph - N/A   Clear
6:15 AM 66.2 °F - 55.4 °F 68% 29.92 in 10.0 mi South 13.8 mph - N/A   Clear
6:35 AM 66.2 °F - 55.4 °F 68% 29.92 in 10.0 mi SSW 13.8 mph - N/A   Clear
6:55 AM 66.2 °F - 57.2 °F 73% 29.93 in 10.0 mi SSW 9.2 mph - N/A   Clear
7:15 AM 66.2 °F - 57.2 °F 73% 29.94 in 10.0 mi SW 10.4 mph - N/A   Clear
7:35 AM 66.2 °F - 57.2 °F 73% 29.96 in 10.0 mi North 9.2 mph - N/A   Clear
7:55 AM 71.6 °F - 55.4 °F 57% 29.98 in 10.0 mi NNE 8.1 mph - N/A   Clear
8:15 AM 71.6 °F - 57.2 °F 60% 29.99 in 10.0 mi North 4.6 mph - N/A   Clear
8:35 AM 69.8 °F - 59.0 °F 68% 30.00 in 10.0 mi NE 11.5 mph - N/A   Clear
8:55 AM 69.8 °F - 59.0 °F 68% 30.00 in 10.0 mi ENE 8.1 mph - N/A   Clear
9:15 AM 71.6 °F - 59.0 °F 64% 30.00 in 10.0 mi ENE 6.9 mph - N/A   Clear
9:35 AM 75.2 °F - 60.8 °F 61% 30.01 in 10.0 mi ENE 5.8 mph - N/A   Clear
9:55 AM 75.2 °F - 60.8 °F 61% 30.01 in 10.0 mi NE 4.6 mph - N/A   Clear
10:15 AM 78.8 °F - 57.2 °F 47% 30.01 in 10.0 mi SE 6.9 mph - N/A   Clear
10:35 AM 78.8 °F - 60.8 °F 54% 30.01 in 8.0 mi SE 5.8 mph - N/A   Clear
10:55 AM 78.8 °F - 59.0 °F 51% 30.00 in 10.0 mi ESE 4.6 mph - N/A   Clear
11:15 AM 78.8 °F - 60.8 °F 54% 30.00 in 10.0 mi ESE 5.8 mph - N/A   Clear
11:35 AM 80.6 °F 80.8 °F 57.2 °F 45% 30.00 in 10.0 mi NE 3.5 mph - N/A   Clear
11:55 AM 80.6 °F 80.8 °F 57.2 °F 45% 30.00 in 9.0 mi East 5.8 mph - N/A   Clear
12:15 PM 82.4 °F 82.0 °F 57.2 °F 42% 30.00 in 10.0 mi NE 5.8 mph - N/A   Clear
12:35 PM 82.4 °F 82.0 °F 57.2 °F 42% 30.00 in 10.0 mi Calm Calm - N/A   Clear
12:55 PM 82.4 °F 82.0 °F 57.2 °F 42% 30.00 in 10.0 mi Calm Calm - N/A   Clear
1:15 PM 84.2 °F 83.5 °F 57.2 °F 40% 30.00 in 10.0 mi Calm Calm - N/A   Clear
1:35 PM 84.2 °F 83.0 °F 55.4 °F 37% 30.00 in 10.0 mi Calm Calm - N/A   Clear
1:55 PM 84.2 °F 83.0 °F 55.4 °F 37% 29.99 in 10.0 mi SSE 6.9 mph - N/A   Clear
2:15 PM 86.0 °F 84.9 °F 57.2 °F 37% 29.99 in 10.0 mi South 8.1 mph - N/A   Clear
2:35 PM 86.0 °F 84.5 °F 55.4 °F 35% 29.98 in 10.0 mi NNW 5.8 mph - N/A   Clear
2:55 PM 86.0 °F 84.9 °F 57.2 °F 37% 29.97 in 10.0 mi NNE 5.8 mph - N/A   Clear
3:15 PM 87.8 °F 86.5 °F 57.2 °F 35% 29.97 in 10.0 mi NNE 9.2 mph - N/A   Clear
3:35 PM 87.8 °F 86.5 °F 57.2 °F 35% 29.97 in 10.0 mi Calm Calm - N/A   Clear
3:55 PM 87.8 °F 86.5 °F 57.2 °F 35% 29.96 in 10.0 mi South 4.6 mph - N/A   Clear
4:15 PM 87.8 °F 86.5 °F 57.2 °F 35% 29.96 in 10.0 mi ESE 8.1 mph 17.3 mph N/A   Clear
4:35 PM 87.8 °F 86.5 °F 57.2 °F 35% 29.94 in 10.0 mi SSE 10.4 mph - N/A   Clear
4:55 PM 87.8 °F 86.5 °F 57.2 °F 35% 29.94 in 10.0 mi SE 4.6 mph - N/A   Clear
5:15 PM 87.8 °F 86.5 °F 57.2 °F 35% 29.93 in 10.0 mi East 5.8 mph - N/A   Clear
5:35 PM 89.6 °F 88.1 °F 57.2 °F 33% 29.91 in 10.0 mi ESE 11.5 mph 17.3 mph N/A   Clear
5:55 PM 87.8 °F 86.5 °F 57.2 °F 35% 29.90 in 10.0 mi SE 9.2 mph - N/A   Clear
6:15 PM 87.8 °F 86.5 °F 57.2 °F 35% 29.90 in 10.0 mi SE 10.4 mph - N/A   Clear
6:35 PM 87.8 °F 87.1 °F 59.0 °F 38% 29.90 in 10.0 mi ESE 6.9 mph - N/A   Clear
6:55 PM 87.8 °F 87.1 °F 59.0 °F 38% 29.90 in 10.0 mi ESE 8.1 mph - N/A   Clear
7:15 PM 87.8 °F 87.1 °F 59.0 °F 38% 29.90 in 10.0 mi ESE 6.9 mph - N/A   Clear
7:35 PM 86.0 °F 85.4 °F 59.0 °F 40% 29.88 in 10.0 mi SE 6.9 mph - N/A   Clear
7:55 PM 84.2 °F 84.4 °F 60.8 °F 45% 29.88 in 10.0 mi ESE 6.9 mph - N/A   Clear
8:15 PM 84.2 °F 84.4 °F 60.8 °F 45% 29.90 in 10.0 mi East 4.6 mph - N/A   Clear
8:35 PM 82.4 °F 83.4 °F 62.6 °F 51% 29.92 in 10.0 mi East 3.5 mph - N/A   Clear
8:55 PM 82.4 °F 83.4 °F 62.6 °F 51% 29.93 in 10.0 mi NE 3.5 mph - N/A   Clear
9:15 PM 82.4 °F 83.4 °F 62.6 °F 51% 29.92 in 10.0 mi ENE 5.8 mph - N/A   Clear
9:35 PM 80.6 °F 81.8 °F 62.6 °F 54% 29.93 in 10.0 mi ENE 8.1 mph - N/A   Clear
9:55 PM 80.6 °F 82.3 °F 64.4 °F 58% 29.94 in 10.0 mi East 12.7 mph - N/A   Clear
10:15 PM 80.6 °F 82.3 °F 64.4 °F 58% 29.95 in 10.0 mi East 10.4 mph - N/A   Scattered Clouds
10:35 PM 78.8 °F - 64.4 °F 61% 29.96 in 10.0 mi East 9.2 mph - N/A   Scattered Clouds
10:55 PM 77.0 °F - 64.4 °F 65% 29.97 in 10.0 mi East 8.1 mph - N/A   Mostly Cloudy
11:15 PM 77.0 °F - 66.2 °F 69% 29.98 in 10.0 mi East 3.5 mph - N/A   Mostly Cloudy
11:35 PM 69.8 °F - 59.0 °F 68% 29.99 in 10.0 mi North 38.0 mph 44.9 mph N/A Thunderstorm Thunderstorm
11:55 PM 64.4 °F - 59.0 °F 83% 30.08 in 4.0 mi North 24.2 mph 34.5 mph 0.26 in Thunderstorm Thunderstorm